User: anonymous   Login
Location: Kawakawa
(35.3830°S, 174.0670°E)
Time: 13:39:30
(UTC+13:00)
Language:

Timation 1 Rocket - Orbit

View from above orbital plane
View from above orbital plane
View from above satellite
View from above satellite

Ground track
Ground track

The orbit data is extracted from the following two-line orbital elements,

1  2825U 67053B   19324.09759994 -.00000035  00000-0  13296-4 0  9993
2  2825  69.9709 185.1219 0005221  31.7418 131.0899 13.97141468757138
Epoch (UTC): 20 November 2019 02:20:32
Eccentricity: 0.0005221
inclination: 69.9709°
perigee height: 900 km
apogee height: 907 km
right ascension of ascending node: 185.1219°
argument of perigee: 31.7418°
revolutions per day: 13.97141468
mean anomaly at epoch: 131.0899°
orbit number at epoch: 75713

The dashed part of the orbit path shows where the satellite is in the earth's shadow,  

DLR